When you browse on this site, cookies collect data to enhance your experience and personalize the content and advertising you see.
Visit our Privacy Policy to learn more. By continuing to use the site, you agree to this use of cookies and data.
  • Em Portugal
  • Lista de países
  • Para 7 dias
  • Temperatura da água
  • Mapas de satélite
  • Mapa do tempo
  • Widgets de tempo
  • user-avatar
    Iniciar Sessão

    Previsão horária em Rozlazino

    Hoje, 25 Maio, Sábado

    Tempo Temperatura Precipitação Vento Pressão Humidade
    00:00 +12°C° 0 mm 2 m/s 751 mmHg 91%
    01:00 +10°C° 0 mm 2 m/s 751 mmHg 94%
    02:00 +9°C° 0 mm 2 m/s 751 mmHg 95%
    03:00 +9°C° 0 mm 3 m/s 751 mmHg 95%
    04:00 +8°C° 0 mm 3 m/s 751 mmHg 96%
    05:00 +9°C° 0 mm 3 m/s 752 mmHg 91%
    06:00 +10°C° 0 mm 4 m/s 752 mmHg 86%
    07:00 +11°C° 0 mm 4 m/s 752 mmHg 81%
    08:00 +12°C° 0 mm 4 m/s 752 mmHg 78%
    09:00 +12°C° 0 mm 4 m/s 753 mmHg 75%
    10:00 +13°C° 0 mm 5 m/s 753 mmHg 73%
    11:00 +13°C° 0 mm 5 m/s 753 mmHg 72%
    12:00 +13°C° 0 mm 5 m/s 753 mmHg 72%
    13:00 +13°C° 0 mm 5 m/s 753 mmHg 72%
    14:00 +13°C° 0 mm 5 m/s 753 mmHg 73%
    15:00 +13°C° 0 mm 5 m/s 753 mmHg 73%
    16:00 +13°C° 0 mm 5 m/s 752 mmHg 74%
    17:00 +12°C° 0 mm 4 m/s 752 mmHg 76%
    18:00 +12°C° 0 mm 4 m/s 752 mmHg 78%
    19:00 +12°C° 0 mm 3 m/s 752 mmHg 80%
    20:00 +11°C° 0 mm 3 m/s 752 mmHg 84%
    21:00 +10°C° 0 mm 3 m/s 752 mmHg 89%
    22:00 +9°C° 0 mm 3 m/s 752 mmHg 93%
    23:00 +9°C° 0 mm 3 m/s 752 mmHg 94%

    Amanhã, 26 Maio, Domingo

    Tempo Temperatura Precipitação Vento Pressão Humidade
    00:00 +9°C° 0 mm 3 m/s 752 mmHg 94%
    01:00 +8°C° 0 mm 4 m/s 752 mmHg 95%
    02:00 +8°C° 0 mm 3 m/s 752 mmHg 96%
    03:00 +8°C° 0 mm 3 m/s 752 mmHg 96%
    04:00 +8°C° 0 mm 3 m/s 752 mmHg 97%
    05:00 +8°C° 0 mm 4 m/s 752 mmHg 91%
    06:00 +9°C° 0 mm 5 m/s 752 mmHg 85%
    07:00 +10°C° 0 mm 5 m/s 752 mmHg 79%
    08:00 +12°C° 0 mm 5 m/s 752 mmHg 76%
    09:00 +13°C° 0 mm 5 m/s 751 mmHg 72%
    10:00 +13°C° 0 mm 6 m/s 751 mmHg 69%
    11:00 +14°C° 0.1 mm 6 m/s 751 mmHg 69%
    12:00 +14°C° 0.1 mm 6 m/s 751 mmHg 70%
    13:00 +15°C° 0.1 mm 6 m/s 751 mmHg 70%
    14:00 +14°C° 0.2 mm 5 m/s 750 mmHg 75%
    15:00 +14°C° 0.2 mm 4 m/s 750 mmHg 80%
    16:00 +13°C° 0.2 mm 3 m/s 749 mmHg 86%
    17:00 +13°C° 0.1 mm 4 m/s 749 mmHg 87%
    18:00 +13°C° 0.1 mm 4 m/s 749 mmHg 89%
    19:00 +13°C° 0.1 mm 4 m/s 749 mmHg 91%
    20:00 +13°C° 0.1 mm 4 m/s 749 mmHg 92%
    21:00 +13°C° 0.1 mm 4 m/s 749 mmHg 93%
    22:00 +13°C° 0.1 mm 4 m/s 749 mmHg 94%
    23:00 +13°C° 0.7 mm 4 m/s 749 mmHg 94%

    Depois de amanhã, 27 Maio, Segunda-feira

    Tempo Temperatura Precipitação Vento Pressão Humidade
    00:00 +13°C° 0.7 mm 4 m/s 749 mmHg 94%
    01:00 +14°C° 0.7 mm 5 m/s 748 mmHg 94%
    02:00 +13°C° 0.1 mm 5 m/s 748 mmHg 94%
    03:00 +13°C° 0.1 mm 5 m/s 747 mmHg 94%
    04:00 +13°C° 0.1 mm 5 m/s 747 mmHg 94%
    05:00 +13°C° 0.3 mm 5 m/s 747 mmHg 93%
    06:00 +14°C° 0.3 mm 5 m/s 747 mmHg 93%
    07:00 +14°C° 0.3 mm 5 m/s 747 mmHg 93%
    08:00 +14°C° 0.3 mm 5 m/s 747 mmHg 92%
    09:00 +15°C° 0.3 mm 5 m/s 748 mmHg 92%
    10:00 +15°C° 0.3 mm 5 m/s 748 mmHg 92%
    11:00 +16°C° 0.6 mm 5 m/s 748 mmHg 86%
    12:00 +17°C° 0.6 mm 5 m/s 748 mmHg 81%
    13:00 +19°C° 0.6 mm 6 m/s 748 mmHg 75%
    14:00 +17°C° 0.1 mm 5 m/s 748 mmHg 73%
    15:00 +18°C° 0.1 mm 4 m/s 749 mmHg 71%
    16:00 +18°C° 0.1 mm 4 m/s 749 mmHg 69%
    17:00 +17°C° 0 mm 3 m/s 749 mmHg 73%
    18:00 +16°C° 0 mm 2 m/s 749 mmHg 76%
    19:00 +15°C° 0 mm 2 m/s 749 mmHg 80%
    20:00 +14°C° 0 mm 1 m/s 749 mmHg 83%
    21:00 +12°C° 0 mm 1 m/s 749 mmHg 86%
    22:00 +11°C° 0 mm 1 m/s 749 mmHg 89%
    23:00 +11°C° 0 mm 1 m/s 749 mmHg 89%

    28 Maio, Terça-feira

    Tempo Temperatura Precipitação Vento Pressão Humidade
    00:00 +9°C° 0 mm 0 m/s 749 mmHg 90%
    01:00 +9°C° 0 mm 0 m/s 749 mmHg 90%
    02:00 +9°C° 0 mm 0 m/s 749 mmHg 90%
    03:00 +8°C° 0 mm 0 m/s 749 mmHg 91%
    04:00 +8°C° 0 mm 0 m/s 749 mmHg 91%
    05:00 +10°C° 0 mm 0 m/s 750 mmHg 85%
    06:00 +12°C° 0 mm 0 m/s 750 mmHg 78%
    07:00 +15°C° 0 mm 1 m/s 750 mmHg 72%
    08:00 +15°C° 0 mm 1 m/s 750 mmHg 68%
    09:00 +16°C° 0 mm 1 m/s 750 mmHg 65%
    10:00 +18°C° 0 mm 1 m/s 750 mmHg 61%
    11:00 +17°C° 0 mm 2 m/s 750 mmHg 61%
    12:00 +17°C° 0 mm 2 m/s 750 mmHg 62%
    13:00 +18°C° 0 mm 3 m/s 750 mmHg 62%
    14:00 +17°C° 0 mm 3 m/s 750 mmHg 64%
    15:00 +17°C° 0 mm 3 m/s 751 mmHg 66%
    16:00 +16°C° 0 mm 3 m/s 751 mmHg 67%
    17:00 +16°C° 0 mm 3 m/s 751 mmHg 70%
    18:00 +15°C° 0 mm 2 m/s 751 mmHg 73%
    19:00 +14°C° 0 mm 2 m/s 751 mmHg 76%
    20:00 +13°C° 0 mm 2 m/s 751 mmHg 77%
    21:00 +12°C° 0 mm 2 m/s 752 mmHg 79%
    22:00 +10°C° 0 mm 2 m/s 752 mmHg 80%
    23:00 +10°C° 0 mm 2 m/s 752 mmHg 83%

    29 Maio, Quarta-feira

    Tempo Temperatura Precipitação Vento Pressão Humidade
    00:00 +9°C° 0 mm 2 m/s 752 mmHg 86%
    01:00 +9°C° 0 mm 2 m/s 753 mmHg 89%
    02:00 +9°C° 0 mm 3 m/s 753 mmHg 88%
    03:00 +9°C° 0 mm 3 m/s 753 mmHg 87%
    04:00 +9°C° 0 mm 3 m/s 753 mmHg 86%
    05:00 +8°C° 0 mm 4 m/s 754 mmHg 81%
    06:00 +10°C° 0 mm 4 m/s 754 mmHg 76%
    07:00 +10°C° 0 mm 4 m/s 755 mmHg 71%
    08:00 +11°C° 0 mm 4 m/s 755 mmHg 67%
    09:00 +12°C° 0 mm 5 m/s 756 mmHg 64%
    10:00 +12°C° 0 mm 5 m/s 756 mmHg 61%
    11:00 +12°C° 0 mm 5 m/s 756 mmHg 60%
    12:00 +12°C° 0 mm 5 m/s 756 mmHg 60%
    13:00 +12°C° 0 mm 5 m/s 756 mmHg 59%
    14:00 +12°C° 0 mm 5 m/s 756 mmHg 58%
    15:00 +12°C° 0 mm 5 m/s 757 mmHg 58%
    16:00 +12°C° 0 mm 5 m/s 757 mmHg 57%
    17:00 +11°C° 0 mm 4 m/s 757 mmHg 62%
    18:00 +10°C° 0 mm 4 m/s 757 mmHg 67%
    19:00 +10°C° 0 mm 3 m/s 758 mmHg 72%
    20:00 +9°C° 0 mm 3 m/s 758 mmHg 77%
    21:00 +8°C° 0 mm 3 m/s 759 mmHg 82%
    22:00 +6°C° 0 mm 2 m/s 759 mmHg 87%
    23:00 +6°C° 0 mm 2 m/s 759 mmHg 88%

    30 Maio, Quinta-feira

    Tempo Temperatura Precipitação Vento Pressão Humidade
    00:00 +6°C° 0 mm 2 m/s 759 mmHg 89%
    01:00 +5°C° 0 mm 2 m/s 759 mmHg 91%
    02:00 +5°C° 0 mm 2 m/s 759 mmHg 91%
    03:00 +5°C° 0 mm 2 m/s 759 mmHg 91%
    04:00 +4°C° 0 mm 2 m/s 759 mmHg 91%
    05:00 +7°C° 0 mm 3 m/s 759 mmHg 84%
    06:00 +9°C° 0 mm 3 m/s 759 mmHg 77%
    07:00 +11°C° 0 mm 3 m/s 759 mmHg 70%
    08:00 +12°C° 0 mm 4 m/s 759 mmHg 65%
    09:00 +14°C° 0 mm 4 m/s 759 mmHg 59%
    10:00 +15°C° 0 mm 5 m/s 759 mmHg 54%
    11:00 +16°C° 0 mm 5 m/s 758 mmHg 52%
    12:00 +17°C° 0 mm 5 m/s 758 mmHg 50%
    13:00 +17°C° 0 mm 5 m/s 757 mmHg 48%
    14:00 +19°C° 0 mm 5 m/s 757 mmHg 48%
    15:00 +19°C° 0 mm 5 m/s 756 mmHg 49%
    16:00 +19°C° 0 mm 5 m/s 756 mmHg 49%
    17:00 +18°C° 0 mm 4 m/s 755 mmHg 55%
    18:00 +17°C° 0 mm 4 m/s 755 mmHg 61%
    19:00 +16°C° 0 mm 3 m/s 755 mmHg 66%
    20:00 +14°C° 0 mm 3 m/s 754 mmHg 67%
    21:00 +13°C° 0 mm 4 m/s 754 mmHg 67%
    22:00 +12°C° 0 mm 4 m/s 754 mmHg 68%
    23:00 +12°C° 0 mm 4 m/s 754 mmHg 70%
    Mostrar mais